Total_Precipitation_Accumulation
2.05 2.73 2.05 1.10 0.63 0.47 0.31 0.27 0.19 0.06 0.17 0.15 0.08 0.09 0.47 1.20 1.18 0.79 0.49 0.19 0.12 0.12 0.14 0.31 0.73 2.22 2.50 1.74 1.93 2.53 2.34 2.00 1.28 0.75 0.63 0.77 1.06 1.15 1.11 1.28 0.84 0.52 0.41 0.39
2.07 1.94 0.97 0.59 0.65 0.77 0.49 0.32 0.19 0.10 0.20 0.27 0.11 0.11 0.20 0.79 1.13 0.99 0.72 0.22 0.08 0.08 0.07 0.17 0.47 1.20 2.66 1.81 1.56 2.36 2.77 2.01 1.48 1.04 0.86 0.89 1.06 0.96 1.12 1.26 1.09 1.07 0.87 0.78
1.39 1.04 1.03 1.29 1.39 1.19 0.50 0.31 0.21 0.15 0.32 0.42 0.23 0.29 0.29 0.43 0.79 0.86 0.80 0.38 0.09 0.04 0.04 0.12 0.24 0.68 1.55 2.58 1.53 2.00 3.12 2.62 1.98 1.65 1.90 1.85 1.75 1.28 1.22 1.04 1.16 1.60 1.72 1.48
1.11 0.87 1.08 1.77 1.72 1.36 0.90 0.34 0.32 0.39 1.00 1.03 0.46 0.56 0.39 0.19 0.37 0.46 0.57 0.44 0.17 0.07 0.03 0.06 0.15 0.38 0.78 2.03 1.93 1.86 2.68 3.89 2.35 2.14 1.75 1.26 1.21 1.36 1.05 1.25 1.45 1.24 1.39 1.52
1.36 0.94 0.79 1.46 1.22 1.48 1.19 0.69 0.37 0.62 1.13 1.02 0.55 0.83 0.44 0.15 0.17 0.21 0.34 0.44 0.22 0.04 0.01 0.01 0.08 0.26 0.56 0.98 2.02 1.96 2.65 2.97 4.34 2.96 2.30 1.42 1.01 0.96 0.91 0.84 0.86 1.02 1.04 1.22
0.89 0.80 1.13 0.97 0.99 1.45 1.07 0.79 0.80 1.14 1.66 1.65 0.42 0.59 0.74 0.40 0.19 0.18 0.19 0.56 0.30 0.12 0.03 0.00 0.03 0.19 0.39 0.68 1.47 2.11 2.65 2.35 4.08 4.49 3.81 2.34 1.30 1.08 1.28 1.05 1.08 1.17 1.42 1.50
1.79 1.92 1.50 1.18 1.59 1.76 1.93 1.81 2.44 2.58 1.88 1.11 0.67 0.73 0.52 0.45 0.46 0.50 0.24 0.56 0.40 0.15 0.07 0.01 0.01 0.10 0.28 0.54 0.96 1.38 2.80 2.47 3.15 3.54 4.24 3.95 3.04 1.68 1.33 1.39 1.33 0.94 0.94 0.94
1.85 1.98 1.53 1.23 1.58 2.05 1.74 1.75 1.78 1.31 0.89 0.47 0.37 0.57 0.65 0.64 0.52 0.49 0.25 0.51 0.45 0.17 0.08 0.07 0.04 0.09 0.20 0.40 0.80 0.95 1.37 2.08 2.23 2.55 3.91 4.17 4.44 3.81 2.26 1.72 1.17 0.98 0.60 0.55
0.68 1.20 0.99 0.91 1.09 1.64 1.61 1.20 1.07 0.87 0.48 0.56 0.43 0.34 0.52 0.76 0.86 0.65 0.45 0.59 0.57 0.18 0.06 0.07 0.08 0.13 0.20 0.40 0.54 0.84 0.97 1.04 1.65 1.46 2.59 3.13 3.02 3.00 2.48 1.99 1.34 1.08 0.92 0.66
0.35 1.09 1.04 1.09 1.44 1.43 1.27 0.70 0.87 1.56 1.09 0.78 0.35 0.38 0.98 0.88 1.05 0.99 0.73 0.88 0.74 0.33 0.15 0.17 0.16 0.28 0.29 0.44 0.59 0.71 0.82 0.94 1.06 1.17 1.30 1.68 1.94 2.27 2.18 1.97 1.59 1.07 0.96 0.84
0.47 1.01 1.28 1.53 1.60 1.21 1.06 1.00 0.63 0.67 0.46 0.62 0.47 0.81 1.29 1.37 1.63 1.55 1.37 1.31 1.34 0.92 0.43 0.44 0.54 0.56 0.55 0.92 0.77 0.73 0.84 0.92 1.02 0.90 0.92 1.07 1.40 1.50 1.40 1.68 1.47 1.03 0.81 0.72
0.44 0.95 1.15 0.99 0.34 0.27 0.41 0.38 0.40 1.00 0.61 0.58 0.72 0.88 0.73 1.26 1.90 2.08 1.72 1.72 1.89 1.16 0.69 0.82 1.04 1.04 1.41 1.36 0.97 0.87 0.93 0.68 1.22 1.02 0.85 0.76 0.86 1.01 0.88 0.96 1.15 1.51 0.79 0.63
0.59 1.07 1.12 0.91 0.66 0.64 0.85 0.43 0.37 0.62 1.10 0.84 0.98 0.95 0.56 0.81 1.24 2.24 2.07 1.81 1.70 1.50 1.04 1.11 1.45 1.81 1.42 1.21 0.89 1.07 1.07 0.89 1.42 1.49 1.19 0.70 0.55 0.79 0.69 0.72 0.78 1.22 1.33 0.75
0.51 1.00 1.11 0.99 0.66 0.63 0.85 0.46 0.57 1.14 1.19 0.53 0.91 0.57 0.45 0.53 0.93 1.80 1.84 1.70 1.69 1.65 1.44 1.46 1.52 1.35 1.10 1.12 1.44 1.58 1.75 1.82 1.83 1.93 1.83 1.19 0.87 0.96 0.93 0.79 0.96 0.96 1.23 1.17
0.50 1.11 0.93 0.50 0.29 0.42 0.57 0.57 0.49 0.94 0.52 0.67 0.37 0.24 0.23 0.37 0.91 1.59 1.88 1.88 1.78 2.02 2.55 2.70 2.75 2.57 2.23 2.14 2.17 2.23 2.16 1.91 1.47 1.36 1.61 1.44 1.22 1.32 1.68 1.57 1.39 1.05 1.30 1.31
0.35 0.72 0.75 0.61 0.24 0.38 0.48 0.55 0.36 0.57 0.29 0.29 0.18 0.15 0.04 0.17 0.44 0.89 1.40 1.68 2.14 2.66 2.56 2.20 1.94 1.72 1.61 1.61 1.66 1.48 1.53 1.42 1.26 1.38 1.40 1.21 1.47 1.46 1.74 1.92 1.62 0.99 1.37 1.38
0.28 0.51 0.75 0.67 0.48 0.28 0.47 0.58 0.69 0.49 0.21 0.25 0.28 0.15 0.02 0.07 0.26 0.47 0.83 1.06 1.16 1.20 1.05 0.96 0.99 0.93 0.92 0.98 0.96 1.02 1.16 1.00 0.97 0.99 1.09 1.24 1.38 1.31 1.47 1.42 1.53 1.57 1.71 1.77
0.06 0.23 0.46 0.31 0.15 0.16 0.11 0.14 0.44 0.28 0.23 0.26 0.15 0.08 0.03 0.01 0.05 0.08 0.10 0.14 0.20 0.27 0.35 0.41 0.41 0.37 0.37 0.26 0.18 0.16 0.23 0.37 0.73 0.61 0.92 1.15 1.12 1.16 1.27 1.27 1.73 1.57 1.44 1.66
0.05 0.16 0.25 0.16 0.07 0.03 0.00 0.00 0.07 0.14 0.23 0.14 0.08 0.03 0.01 0.00 0.22 0.35 0.15 0.04 0.01 0.00 0.01 0.00 0.00 0.00 0.00 0.02 0.02 0.03 0.05 0.15 0.39 0.28 0.36 0.58 0.66 0.64 0.65 0.98 1.29 1.07 1.02 1.26
0.05 0.18 0.27 0.10 0.13 0.02 0.00 0.00 0.01 0.02 0.21 0.02 0.06 0.04 0.02 0.01 0.29 0.32 0.24 0.05 0.02 0.00 0.00 0.00 0.00 0.02 0.05 0.08 0.08 0.07 0.07 0.10 0.31 0.33 0.31 0.31 0.50 0.48 0.68 0.76 0.85 1.05 0.91 0.91
0.11 0.20 0.30 0.16 0.19 0.01 0.00 0.00 0.01 0.10 0.16 0.02 0.06 0.06 0.01 0.01 0.03 0.06 0.08 0.11 0.08 0.12 0.12 0.14 0.08 0.16 0.24 0.37 0.35 0.41 0.43 0.62 0.88 0.58 0.60 0.65 0.78 0.67 0.62 0.71 0.62 0.54 0.42 0.33
0.03 0.05 0.09 0.14 0.10 0.00 0.00 0.00 0.01 0.01 0.02 0.03 0.10 0.03 0.02 0.01 0.02 0.02 0.01 0.07 0.11 0.14 0.12 0.33 0.48 0.53 0.60 0.72 0.65 0.63 0.71 0.75 0.91 0.67 0.59 0.57 0.49 0.44 0.35 0.27 0.18 0.10 0.09 0.06
0.00 0.00 0.00 0.00 0.00 0.00 0.00 0.00 0.00 0.00 0.00 0.00 0.02 0.10 0.13 0.12 0.19 0.07 0.02 0.01 0.03 0.07 0.03 0.12 0.22 0.13 0.18 0.29 0.34 0.25 0.24 0.23 0.20 0.16 0.13 0.13 0.08 0.05 0.03 0.00 0.00 0.00 0.00 0.00
0.00 0.00 0.00 0.00 0.00 0.00 0.00 0.00 0.00 0.00 0.00 0.00 0.00 0.01 0.22 0.07 0.08 0.03 0.06 0.04 0.05 0.05 0.02 0.04 0.04 0.04 0.04 0.05 0.04 0.03 0.02 0.02 0.02 0.02 0.02 0.00 0.00 0.01 0.00 0.00 0.00 0.00 0.00 0.00
0.01 0.01 0.00 0.01 0.00 0.00 0.00 0.00 0.00 0.01 0.02 0.00 0.00 0.01 0.03 0.10 0.10 0.04 0.16 0.08 0.00 0.00 0.00 0.00 0.01 0.02 0.00 0.00 0.00 0.00 0.01 0.03 0.06 0.09 0.13 0.16 0.14 0.12 0.06 0.03 0.03 0.02 0.01 0.03
0.00 0.02 0.01 0.03 0.01 0.02 0.02 0.01 0.00 0.00 0.01 0.01 0.02 0.01 0.02 0.02 0.13 0.02 0.06 0.03 0.00 0.00 0.00 0.00 0.00 0.01 0.00 0.00 0.00 0.00 0.00 0.00 0.00 0.01 0.02 0.05 0.11 0.23 0.32 0.35 0.38 0.40 0.38 0.37